EHI
0 1 1 1 4 8 14 19 22 21 19 18 18 17 15 11 4 2 3 1 0 0 0 0 0 0 0 0 0 0 0 0 0 0 0 0 0 0
1 1 1 1 3 7 12 19 25 25 20 17 15 13 9 5 2 2 2 0 0 0 0 0 0 0 0 0 0 0 0 0 0 0 0 0 0 0
0 0 0 1 2 6 10 15 21 24 19 13 10 7 4 2 1 1 0 0 0 0 0 0 0 0 0 0 0 0 0 0 0 0 0 0 0 0
0 0 0 0 1 3 5 8 12 15 12 7 3 2 1 1 0 0 0 0 0 0 0 0 0 0 0 0 0 0 0 0 0 0 0 0 0 0
0 0 0 0 0 0 2 4 6 6 5 2 0 0 0 0 0 0 0 0 0 0 0 0 0 0 0 0 0 0 0 0 0 0 0 0 0 0
0 0 0 0 0 0 2 3 2 2 1 0 0 0 0 0 0 0 0 0 0 0 0 0 0 0 0 0 0 0 0 0 0 0 0 0 0 0
0 0 0 0 0 0 1 1 0 0 0 0 0 0 0 0 0 0 0 0 0 0 0 0 0 0 0 0 0 0 0 0 0 0 0 0 0 0
0 0 0 0 0 0 0 0 0 0 0 0 0 0 0 0 0 0 0 0 0 0 0 0 0 0 0 0 0 0 0 0 0 0 0 0 0 0
0 0 0 0 0 0 0 0 0 0 0 0 0 0 0 0 0 0 0 0 0 0 0 0 0 0 0 0 0 0 0 0 0 0 0 0 0 0
0 0 0 0 0 0 0 0 0 0 0 0 0 0 0 0 0 0 0 0 0 0 0 0 0 0 0 0 0 0 0 0 0 0 0 0 0 0
0 0 0 0 0 0 0 0 0 0 0 0 0 0 0 0 0 0 0 0 0 0 0 0 0 0 0 0 0 0 0 0 0 0 0 0 0 0
0 0 0 0 0 0 0 0 0 0 0 0 0 0 0 0 0 0 0 0 0 0 0 0 0 0 0 0 0 0 0 0 0 0 0 0 0 0
0 0 0 0 0 0 0 0 0 0 0 0 0 0 0 0 0 0 0 0 0 0 0 0 0 0 0 0 0 0 0 0 0 0 0 0 0 0
0 0 0 0 0 0 0 0 0 0 0 0 0 0 0 0 0 0 0 0 0 0 0 0 0 0 0 0 0 0 0 0 0 0 0 0 0 0
0 0 0 0 0 0 0 0 0 0 0 0 0 0 0 0 0 0 0 0 0 0 0 0 0 0 0 0 0 0 0 0 0 0 0 0 0 0
0 0 0 0 0 0 0 0 0 0 0 0 0 0 0 0 0 0 0 0 0 0 0 0 0 0 0 0 0 0 0 0 0 0 0 0 0 0
0 0 0 0 0 0 0 0 0 0 0 0 0 0 0 0 0 0 0 0 0 0 0 0 0 0 0 0 0 0 0 0 0 0 0 0 0 0
0 0 0 0 0 0 0 0 0 0 0 0 0 0 0 0 0 0 0 0 0 0 0 0 0 0 0 0 0 0 0 0 0 0 0 0 0 0
0 0 0 0 0 0 0 0 0 0 0 0 0 0 0 0 0 0 0 0 0 0 0 0 0 0 0 0 0 0 0 0 0 0 0 0 0 0
0 0 0 0 0 0 0 0 0 0 0 0 0 0 0 0 0 0 0 0 0 0 0 0 0 0 0 0 0 0 0 0 0 0 0 0 0 0
0 0 0 0 0 0 0 0 0 0 0 0 0 0 0 0 0 0 0 0 0 0 0 0 0 0 0 0 0 0 0 0 0 0 0 0 0 0
0 0 0 0 0 0 0 0 0 0 0 0 0 0 0 0 0 0 0 0 0 0 0 0 0 0 0 0 0 0 0 0 0 0 0 0 0 0
0 0 0 0 0 0 0 0 0 0 0 0 0 0 0 0 0 0 0 0 0 0 0 0 0 0 0 0 0 0 0 0 0 0 0 0 0 0
Wind_Speed
12 13 12 11 10 10 9 9 9 7 5 3 2 1 2 3 4 4 7 11 11 12 13 13 14 14 13 12 10 9 7 6 6 6 6 7 9 11
9 11 11 9 8 8 8 8 7 7 3 2 2 3 3 5 6 8 10 13 13 14 15 16 17 17 16 15 15 14 14 13 12 11 9 7 4 3
9 8 8 8 6 5 4 4 4 4 4 4 3 4 5 6 6 7 7 8 10 15 16 17 17 17 17 17 15 15 15 15 14 13 12 10 8 6
7 6 6 4 4 3 2 2 2 4 6 8 4 4 5 6 7 7 7 8 9 15 17 18 17 17 17 16 14 14 14 14 13 12 11 10 8 7
5 4 4 3 2 2 3 4 5 6 7 8 6 3 4 5 7 8 8 7 10 12 15 16 17 16 15 14 13 13 13 12 11 10 9 8 7 6
4 4 4 4 4 5 6 7 7 8 8 8 7 5 5 6 6 7 7 7 8 9 10 11 14 15 14 13 13 13 12 11 10 9 8 7 6 5
4 5 6 9 10 7 6 6 7 7 7 7 7 7 6 6 6 7 8 8 8 7 8 8 8 8 10 12 13 13 11 10 9 9 8 7 6 6
5 6 7 10 13 13 13 11 7 6 7 6 6 7 7 7 6 6 8 8 7 5 6 7 7 8 8 9 10 11 11 10 10 10 9 8 8 7
5 5 6 8 8 9 12 12 11 9 6 5 8 8 8 7 7 7 6 7 7 5 6 8 7 8 9 9 10 10 10 10 10 10 10 10 10 9
6 7 8 8 7 8 10 11 10 9 7 8 8 8 8 7 7 9 10 9 8 5 4 7 7 7 8 8 8 8 8 8 8 9 10 12 12 11
7 7 8 9 7 7 11 12 11 10 13 15 13 12 12 9 3 6 7 7 8 6 3 5 6 6 6 6 7 7 7 6 5 7 9 12 15 13
7 7 7 9 8 6 10 11 11 10 10 11 10 10 10 8 6 4 4 6 7 7 4 2 4 4 5 5 5 4 4 5 5 6 7 10 13 10
9 8 8 9 7 4 6 9 10 10 10 10 9 9 8 7 7 8 8 6 6 7 4 3 4 3 3 5 5 5 5 6 4 4 7 7 7 8
8 8 10 10 7 4 6 10 9 8 7 7 7 7 7 8 8 9 10 10 9 9 6 6 5 4 4 5 5 4 5 6 6 6 6 4 4 4
7 11 14 14 11 8 11 11 9 6 7 7 7 7 8 9 8 8 9 9 9 8 7 6 5 4 5 5 5 5 5 6 7 7 6 6 7 7
11 14 13 9 8 11 10 9 7 5 6 7 8 8 8 7 7 7 7 7 8 8 7 6 6 5 5 5 5 5 6 6 7 7 6 5 6 7
13 11 11 11 11 10 9 7 7 7 6 7 7 8 7 6 6 5 4 5 6 7 7 6 6 5 7 7 6 6 6 6 6 7 6 5 6 7
14 12 11 11 11 10 10 9 8 8 7 7 7 7 7 7 6 6 5 5 5 5 5 3 3 5 7 7 7 7 6 6 6 6 6 6 7 7
12 11 11 10 10 10 9 9 9 8 7 7 7 7 7 7 6 6 5 5 5 5 5 4 3 3 3 4 6 4 7 6 7 7 7 7 6 7
11 11 11 10 10 9 9 9 9 9 8 7 7 7 7 7 6 6 5 5 5 5 5 4 4 5 5 4 3 5 4 6 7 8 8 7 6 4
11 11 11 10 10 9 9 9 10 9 8 8 7 7 6 6 6 6 6 4 2 4 4 5 4 2 3 2 1 4 4 4 1 4 7 8 9 8
11 11 11 10 10 9 9 9 9 9 9 8 8 7 6 6 7 7 7 6 4 4 4 5 4 3 1 3 4 3 4 2 5 5 1 2 7 8
11 11 11 11 10 9 9 10 11 10 9 8 8 7 7 6 6 6 6 5 5 4 4 3 3 2 1 1 3 3 4 5 4 2 4 9 9 10
Wind_Direction
268 265 259 257 253 250 244 240 241 241 229 180 133 76 94 102 114 108 98 86 83 81 78 76 74 69 64 62 64 66 74 98 130 158 179 194 204 214
276 272 266 260 255 250 243 236 229 230 213 109 103 103 96 99 94 94 92 87 81 82 80 77 75 72 69 67 65 66 70 73 79 84 88 94 108 130
294 286 280 273 264 256 243 231 215 196 157 109 90 94 96 100 98 97 97 92 87 84 84 81 77 74 71 69 67 67 69 71 72 75 76 77 75 71
308 306 306 302 278 253 217 177 149 141 132 124 107 96 94 100 100 95 94 92 91 86 85 84 81 77 74 71 69 68 68 68 67 67 67 65 61 53
320 327 333 358 32 70 99 105 104 107 111 118 116 103 101 110 104 100 100 104 100 99 91 87 85 81 78 74 70 67 65 64 63 60 57 53 47 36
360 10 20 50 70 83 88 95 104 109 115 119 122 122 121 125 124 124 117 108 106 103 97 101 101 94 87 78 71 67 64 62 58 53 46 39 28 12
53 48 57 73 71 76 90 100 110 115 120 124 126 129 129 140 136 131 119 118 111 120 126 127 121 106 96 83 69 62 61 58 53 46 35 25 12 355
87 82 81 80 81 79 78 75 78 110 123 129 128 126 128 127 126 135 139 133 119 119 120 111 104 92 79 73 62 59 56 51 45 37 27 14 0 345
106 101 96 92 93 101 95 88 75 69 91 108 115 122 125 129 137 124 103 100 96 118 125 114 108 100 94 81 72 64 57 50 43 34 24 11 357 342
121 115 112 110 110 115 112 103 91 69 72 94 99 97 101 104 105 107 112 115 110 99 119 117 113 109 107 100 97 81 68 55 44 34 24 11 354 334
135 130 128 125 127 127 118 111 104 92 71 71 76 80 67 55 64 139 143 130 114 100 90 115 121 121 111 105 118 129 108 84 65 49 34 19 355 336
139 136 135 137 148 156 134 127 121 116 115 110 106 113 104 85 47 60 114 125 122 108 76 92 121 140 121 92 68 72 96 128 133 103 66 38 8 2
157 158 140 137 156 172 158 136 131 133 130 127 122 117 113 103 86 65 43 54 84 92 92 88 93 93 92 101 77 55 40 30 38 98 106 82 41 20
162 152 134 144 149 156 136 126 145 164 143 134 125 118 111 99 86 77 69 66 68 74 54 59 72 51 76 80 69 53 54 38 24 22 32 80 88 95
125 110 129 140 138 124 127 145 177 170 140 133 124 114 102 102 109 108 102 99 95 84 73 49 68 70 60 62 58 43 32 38 26 15 17 28 27 23
120 119 131 148 140 124 148 178 191 147 140 130 124 122 129 144 145 139 139 138 124 112 96 75 52 41 60 58 47 41 31 27 24 14 358 19 30 28
144 148 151 154 154 158 165 163 150 146 144 135 138 144 144 136 123 112 116 124 120 122 130 136 130 104 67 31 36 26 21 21 29 10 343 9 29 21
159 159 161 162 160 159 158 157 158 154 148 147 149 149 144 138 134 137 135 120 110 101 92 89 135 164 155 101 34 14 13 8 5 5 353 356 13 19
174 162 163 162 158 157 157 157 152 144 149 151 148 145 143 142 141 137 130 124 115 107 97 79 49 21 39 83 109 51 10 0 353 0 358 351 2 13
179 163 163 160 159 158 156 149 143 148 159 152 147 149 151 147 144 142 132 126 124 124 116 93 61 39 32 21 30 96 92 12 0 356 351 344 356 14
179 165 165 163 161 158 150 148 151 156 156 154 149 154 154 152 147 136 116 107 149 128 114 93 71 273 276 278 338 47 75 127 22 347 347 345 347 351
178 168 167 165 163 159 155 157 155 152 156 163 152 159 158 152 147 150 148 159 150 122 113 116 156 215 282 7 356 20 20 352 182 181 272 351 351 347
178 171 166 168 166 164 164 165 163 161 167 165 155 161 161 156 156 155 156 157 142 140 151 142 150 158 20 341 333 353 357 335 338 290 188 181 201 226